[[{"header":{"parameterUnit":"m.s-1","parameterCategory":1,"la1":30.2992,"la2":30.254,"lo1":-89.0895,"lo2":-89.0443,"dy":0.0025,"dx":0.0025,"nx":19,"ny":19,"refTime":"2026-05-03T09:00:00:Z","depth":0,"parameterNumber":2,"parameterNumberName":"U-component_of_WINDS"},"data":[0,0,0,0.446,0.446,0.4416,0.4416,0.438,0.438,0,0,0,0,0,0,0,0,0,0,0,0.4485,0.4486,0.446,0.446,0.4416,0.4416,0.438,0.438,0,0,0,0,0,0,0,0,0,0,0,0.4485,0.4486,0.4486,0.446,0.4416,0.4416,0.438,0.4406,0,0,0,0,0,0,0,0,0,0,0.4445,0.448,0.4486,0.4486,0.4459,0.4416,0.4416,0.4407,0.4404,0.4408,0,0.4415,0,0.4397,0.4379,0.4379,0,0,0,0.445,0.4482,0.4459,0.4486,0.4459,0.4417,0.4433,0.4405,0.4402,0.4405,0.4414,0.4412,0.4396,0.4378,0.4378,0.4433,0.4434,0,0,0.4453,0.4484,0.4461,0.4458,0.4466,0.4435,0.4432,0.4403,0.4415,0.4414,0.4411,0.4396,0.4378,0.4378,0.4432,0.4433,0,0,0,0.4466,0.4486,0.4464,0.446,0.4451,0.4434,0.4431,0.4416,0.4407,0.4411,0.4395,0.4378,0.4378,0.4432,0.4433,0.4498,0,0,0,0.4467,0.4494,0.4465,0.4484,0.4452,0.4433,0.4445,0.4409,0.4404,0.4396,0.4378,0.4378,0.4431,0.4432,0.4494,0.4523,0,0,0,0.4484,0.4495,0.4493,0.4486,0.4468,0.4433,0.4421,0.4407,0.4396,0.4379,0.4378,0.443,0.4432,0.4491,0.4518,0.4547,0,0,0,0.4511,0.4551,0.4495,0.4534,0.4469,0.4474,0.4421,0.4423,0.4416,0.4378,0.4431,0.4433,0.449,0.4515,0.4544,0.4577,0.4594,0,0,0.4579,0.456,0.4581,0.4529,0.4552,0.4478,0.4509,0.4473,0.4443,0.4438,0.4439,0.4495,0.4517,0.4546,0.4677,0.4691,0,0,0,0.4613,0.4628,0.4627,0.4622,0.4596,0.4576,0.4532,0.4518,0.4513,0.4447,0.4512,0.4525,0.454,0.4555,0.4566,0.4578,0.4441,0.4441,0.444,0.4753,0.4713,0.4744,0.4698,0.4694,0.4649,0.4642,0.4616,0.4575,0.4592,0.459,0.4675,0.4693,0.4701,0.4714,0.4604,0.4605,0.4605,0.4605,0.4849,0.4864,0.481,0.4821,0.4778,0.4786,0.4744,0.4716,0.4717,0.4672,0.4684,0.4639,0.4718,0.4726,0.4609,0.4609,0.4608,0.4608,0.4607,0.4937,0.4937,0.492,0.491,0.4906,0.4858,0.4863,0.4823,0.4785,0.4797,0.4791,0.479,0.4784,0.4797,0.4797,0.4798,0.4798,0.4798,0.4798,0.5034,0.5014,0.5022,0.4999,0.4991,0.4975,0.493,0.4921,0.4901,0.4871,0.4871,0.483,0.4733,0.471,0.4803,0.4802,0.4801,0.4801,0.4801,0.5147,0.5115,0.5129,0.5121,0.509,0.5089,0.5039,0.5024,0.501,0.5014,0.497,0.4905,0.4883,0.4873,0.4854,0.4979,0.4979,0.4979,0.4979,0.5221,0.5206,0.5211,0.5202,0.5187,0.5143,0.516,0.5126,0.5085,0.5074,0.5051,0.5021,0.5013,0.4996,0.4984,0.4965,0.5115,0.5115,0.5115,0.5288,0.527,0.5292,0.5253,0.5225,0.5203,0.5218,0.5209,0.5156,0.512,0.5065,0.506,0.5012,0.4998,0.4961,0.4943,0.4908,0,0]},{"header":{"parameterUnit":"m.s-1","parameterCategory":1,"la1":30.2992,"la2":30.254,"lo1":-89.0895,"lo2":-89.0443,"dy":0.0025,"dx":0.0025,"nx":19,"ny":19,"refTime":"2026-05-03T09:00:00:Z","depth":0,"parameterNumber":3,"parameterNumberName":"V-component_of_WINDS"},"data":[0,0,0,0.7499,0.7496,0.7333,0.7332,0.715,0.7149,0,0,0,0,0,0,0,0,0,0,0,0.7567,0.7566,0.7499,0.7496,0.7333,0.7332,0.7151,0.7149,0,0,0,0,0,0,0,0,0,0,0,0.7567,0.7566,0.7566,0.7495,0.7333,0.7332,0.7151,0.7263,0,0,0,0,0,0,0,0,0,0,0.7417,0.7499,0.7566,0.7566,0.7494,0.7334,0.7332,0.7268,0.7256,0.7237,0,0.7228,0,0.7186,0.7139,0.7138,0,0,0,0.748,0.7509,0.7448,0.7566,0.7493,0.7334,0.7402,0.7261,0.7248,0.7221,0.7225,0.7217,0.7183,0.7138,0.7137,0.7084,0.7085,0,0,0.7489,0.7547,0.7458,0.7441,0.7472,0.7407,0.7397,0.7253,0.7259,0.7224,0.7212,0.718,0.7137,0.7136,0.7084,0.7084,0,0,0,0.7525,0.7554,0.7496,0.7449,0.7418,0.7403,0.7391,0.7265,0.7242,0.721,0.7178,0.7136,0.7134,0.7083,0.7084,0.7166,0,0,0,0.753,0.7575,0.75,0.7534,0.7421,0.734,0.7408,0.7252,0.7234,0.7179,0.7136,0.7133,0.7083,0.7084,0.7163,0.7195,0,0,0,0.757,0.7579,0.7563,0.7538,0.747,0.7341,0.7309,0.7247,0.7215,0.7138,0.7132,0.7082,0.7083,0.716,0.7189,0.7198,0,0,0,0.7629,0.7637,0.7566,0.7561,0.7472,0.7395,0.7309,0.7248,0.7192,0.7135,0.7083,0.7084,0.7159,0.7186,0.7196,0.7216,0.7231,0,0,0.7671,0.7644,0.7636,0.7568,0.7519,0.7415,0.7376,0.7268,0.7205,0.7127,0.7125,0.7164,0.7189,0.7198,0.7292,0.7305,0,0,0,0.7669,0.7665,0.7639,0.7591,0.7511,0.7444,0.7337,0.7296,0.7228,0.7179,0.7168,0.7181,0.7183,0.719,0.7201,0.7199,0.709,0.709,0.709,0.781,0.7733,0.7715,0.7619,0.7573,0.7463,0.7417,0.7343,0.7276,0.7275,0.7251,0.7319,0.733,0.7337,0.7336,0.7256,0.7257,0.7257,0.7257,0.7863,0.7844,0.7758,0.771,0.7627,0.7584,0.7478,0.7432,0.7379,0.733,0.7328,0.7282,0.7353,0.7347,0.7262,0.7261,0.7261,0.726,0.726,0.7946,0.7924,0.7878,0.7801,0.7749,0.7649,0.7603,0.7528,0.7456,0.7455,0.7421,0.7419,0.7408,0.7444,0.7445,0.7445,0.7445,0.7445,0.7445,0.8051,0.7996,0.7968,0.7886,0.7845,0.7782,0.7672,0.7628,0.756,0.7509,0.7508,0.7441,0.7375,0.736,0.7448,0.7448,0.7447,0.7447,0.7447,0.8133,0.8103,0.806,0.802,0.7916,0.787,0.7776,0.7694,0.7647,0.7626,0.7559,0.7523,0.7488,0.7479,0.7466,0.7577,0.7577,0.7577,0.7577,0.8203,0.818,0.8119,0.806,0.7993,0.7904,0.7855,0.7769,0.7674,0.764,0.7613,0.7589,0.7583,0.7552,0.7541,0.7528,0.7652,0.7652,0.7652,0.8249,0.8216,0.819,0.8101,0.8015,0.7941,0.7892,0.7824,0.771,0.7653,0.7611,0.7608,0.7568,0.756,0.7501,0.7487,0.746,0,0]}]]